Weather History for KHRI - April, 2014

Change the Weather History Date:

Tuesday, April 1, 2014

  Actual Average Record
Temperature  
Mean Temperature 48 °F -  
Max Temperature 59 °F 60 °F 77 °F (1930)
Min Temperature 39 °F 36 °F 16 °F (2008)
Degree Days  
Heating Degree Days 17    
Moisture  
Dew Point 36 °F    
Average Humidity 65    
Maximum Humidity 86    
Minimum Humidity 41    
Precipitation  
Precipitation 0.00 in - - ()
Sea Level Pressure  
Sea Level Pressure 29.73 in    
Wind  
Wind Speed 7 mph (WSW)    
Max Wind Speed 15 mph    
Max Gust Speed -    
Visibility 10 miles    
Events      
Averages and records for this station are not official NWS values.
T = Trace of Precipitation, MM = Missing Value Source: NWS Daily Summary

Daily Weather History Graph

Daily Weather History Graph

Search for Another Location

Airport or City:

Trip Planner

Search our weather history database for the weather conditions in past years. The results will help you decide how hot, cold, wet, or windy it might be!

Date:

Astronomy

Apr. 01, 2014 Rise Set
Actual Time 6:36 AM PDT 7:25 PM PDT
Civil Twilight 6:06 AM PDT 7:55 PM PDT
Nautical Twilight 5:30 AM PDT 8:31 PM PDT
Astronomical Twilight 4:53 AM PDT 9:09 PM PDT
Moon 7:36 AM PDT (4/1) 10:01 PM PDT (4/1)
Length of Visible Light 13h 49m
Length of Day
12h 48m
Waxing Crescent, 5% of the Moon is Illuminated
Apr 1
Waxing Crescent
Apr 7
First Quarter
Apr 15
Full
Apr 22
Last Quarter
Apr 28
New

Hourly Weather History & Observations

Time (PDT) Temp. Windchill Dew Point Humidity Pressure Visibility Wind Dir Wind Speed Gust Speed Precip Events Conditions
12:53 AM 45.0 °F 41.2 °F 37.0 °F 74% 29.65 in 10.0 mi South 6.9 mph - N/A   Scattered Clouds
1:53 AM 39.0 °F 33.4 °F 35.1 °F 86% 29.66 in 10.0 mi ENE 8.1 mph - N/A   Clear
2:53 AM 39.9 °F 36.7 °F 36.0 °F 86% 29.66 in 10.0 mi ENE 4.6 mph - N/A   Clear
3:53 AM 42.1 °F 39.2 °F 35.1 °F 76% 29.66 in 10.0 mi SSE 4.6 mph - N/A   Partly Cloudy
4:53 AM 41.0 °F - 37.0 °F 86% 29.67 in 10.0 mi Calm Calm - N/A   Mostly Cloudy
5:53 AM 44.1 °F 40.8 °F 37.0 °F 76% 29.67 in 10.0 mi North 5.8 mph - N/A   Overcast
6:53 AM 39.9 °F 37.8 °F 36.0 °F 86% 29.70 in 10.0 mi ENE 3.5 mph - N/A   Mostly Cloudy
7:53 AM 44.1 °F 40.8 °F 37.9 °F 79% 29.71 in 10.0 mi NNW 5.8 mph - N/A   Overcast
8:53 AM 48.0 °F - 35.1 °F 61% 29.73 in 10.0 mi North 9.2 mph - N/A   Overcast
9:53 AM 51.1 °F - 34.0 °F 52% 29.75 in 10.0 mi NNE 9.2 mph - N/A   Overcast
10:53 AM 51.1 °F - 36.0 °F 56% 29.75 in 10.0 mi Variable 3.5 mph - N/A   Clear
11:53 AM 52.0 °F - 33.1 °F 49% 29.75 in 10.0 mi West 4.6 mph - N/A   Overcast
12:53 PM 54.0 °F - 34.0 °F 47% 29.75 in 10.0 mi North 6.9 mph - N/A   Overcast
1:53 PM 55.9 °F - 34.0 °F 44% 29.75 in 10.0 mi Variable 3.5 mph - N/A   Partly Cloudy
2:53 PM 57.0 °F - 34.0 °F 42% 29.74 in 10.0 mi Variable 6.9 mph - N/A   Partly Cloudy
3:53 PM 57.9 °F - 34.0 °F 41% 29.73 in 10.0 mi SW 10.4 mph - N/A   Clear
4:53 PM 57.0 °F - 39.0 °F 51% 29.74 in 10.0 mi WSW 13.8 mph - N/A   Unknown
5:53 PM 55.9 °F - 39.9 °F 55% 29.73 in 10.0 mi SW 15.0 mph - N/A   Clear
6:53 PM 54.0 °F - 39.9 °F 59% 29.75 in 10.0 mi SW 11.5 mph - N/A   Clear
7:53 PM 51.1 °F - 39.0 °F 63% 29.75 in 10.0 mi SW 9.2 mph - N/A   Clear
8:53 PM 50.0 °F - 37.9 °F 63% 29.77 in 10.0 mi SW 10.4 mph - N/A   Clear
9:53 PM 46.9 °F - 37.9 °F 71% 29.78 in 10.0 mi WSW 8.1 mph - N/A   Clear
10:53 PM 44.1 °F 39.5 °F 37.9 °F 79% 29.79 in 10.0 mi SSW 8.1 mph - N/A   Partly Cloudy
11:53 PM 44.1 °F 39.5 °F 37.9 °F 79% 29.80 in 10.0 mi West 8.1 mph - N/A   Clear